Voltar ao catálogo

KUIPER-00519

AtivoComunicaçõesLEO
NORAD 68890·PAYLOAD·🇺🇸 United States

Lançado Apr 28, 2026 de Cape Canaveral Space Force Station

Loading…

Próximas Passagens (próximas 24 horas)

TLE

AtualizadoSource: CelesTrak SupGP

Época: Sep 15, 2026, 05:15 UTC

1 68890C 26095AC  26258.21924769  .00000369  00000+0  48343-4 0  2587
2 68890  51.9016 200.1129 0000682  95.1013  28.1725 14.79916318    10

Acompanhe KUIPER-00519 em tempo real com AllMySat

Download on the App Store